Flag Weather past 2 weeks in Arequipa, Arequipa, Peru

Now
57 °F

Clear.


Feels Like: 57 °F
Forecast: 49 / 74 °F
Wind: No wind

Location: Arequipa Airport

Current Time: Nov 27, 2014 at 8:58:16 PM

Latest Report: Nov 27, 2014 at 8:00 PM


Visibility: 10 mi

Pressure: 30.30 "Hg

Humidity: 41%

Dew point: 34 °F

Location of ArequipaLocation

Historic Weather in Arequipa — Graph

°F

Arequipa temperature yesterday

Maximum temperature yesterday: 72 °F (at 12:00 PM)
Minimum temperature yesterday: 46 °F (at 5:00 AM)
Average temperature yesterday: 60 °F

Past Weeks' High & Low Weather Summary

 TemperatureHumidityPressure
High72 °F (Nov 18, 2:00 PM)87% (Nov 22, 3:00 AM)30.39 "Hg (Nov 22, 3:00 AM)
Low45 °F (Nov 13, 3:00 AM)8% (Nov 26, 10:00 AM)30.24 "Hg (Nov 13, 3:00 AM)
Average59 °F35%30.30 "Hg
* Reported Nov 12 8:00 PM — Nov 27 8:00 PM, Arequipa, Weather by CustomWeather, © 2014

Note: Actual official high and low records may vary slightly from our data, if they occured in-between our weather recording intervals... More about our weather records

Advertising

Arequipa weather history for previous 24 hours

 ConditionsComfort  
Time TempWeatherWind HumidityBarometerVisibility
8:00 PM
Nov 27
57 °FClear.No wind41%30.30 "Hg10 mi
7:00 PM57 °FPassing clouds.5 mph41%30.30 "HgN/A
6:00 PM59 °FPassing clouds.9 mph39%30.27 "HgN/A
5:00 PM63 °FPassing clouds.12 mph34%30.24 "HgN/A
4:00 PM64 °FPassing clouds.13 mph32%30.24 "HgN/A
3:00 PM68 °FSunny.14 mph24%30.24 "Hg10 mi
2:00 PM68 °FPassing clouds.15 mph24%30.24 "HgN/A
1:00 PM68 °FPassing clouds.16 mph24%30.27 "HgN/A
12:00 PM70 °FPassing clouds.13 mph18%30.27 "HgN/A
11:00 AM70 °FPassing clouds.9 mph13%30.30 "HgN/A
10:00 AM68 °FSunny.6 mph13%30.30 "Hg10 mi
9:00 AM64 °FPassing clouds.6 mph15%30.33 "HgN/A
8:00 AM63 °FPassing clouds.5 mph16%30.33 "HgN/A
7:00 AM61 °FPassing clouds.13 mph15%30.30 "HgN/A
6:00 AM52 °FSunny.12 mph24%30.30 "Hg10 mi
5:00 AM50 °FClear.No wind28%30.30 "Hg10 mi
4:00 AM48 °FClear.7 mph32%30.30 "Hg10 mi
3:00 AM52 °FClear.6 mph28%30.30 "Hg10 mi
2:00 AM50 °FClear.7 mph30%30.30 "Hg10 mi
1:00 AM52 °FClear.6 mph28%30.33 "Hg10 mi
12:00 AM52 °FClear.7 mph28%30.33 "Hg10 mi
11:00 PM
Nov 26
54 °FClear.6 mph24%30.36 "Hg10 mi
10:00 PM55 °FClear.6 mph21%30.36 "Hg10 mi
9:00 PM57 °FPassing clouds.6 mph21%30.36 "HgN/A
8:00 PM59 °FPassing clouds.5 mph21%30.36 "HgN/A
Weather by CustomWeather, © 2014

See weather overviewHow to use our weather pages